Location: Windsor
(43.2292°N, 89.3015°W)
Time: 03:31:52
(UTC+00:00)

MOZHAYETS 4 - Pass Details

Date: 08 July 2022
Orbit: 660 x 679 km, 98.2° (Epoch: 13 August)

Event Time Altitude Azimuth Distance (km) Brightness Sun altitude
Exits shadow 09:45:02 - 237° (WSW) 2,255 9.8 -6.8°
Reaches altitude 10° 09:45:52 10° 246° (WSW) 2,103 9.7 -6.7°
Maximum altitude 09:47:44 12° 271° (W) 1,953 9.7 -6.4°
Drops below altitude 10° 09:49:36 10° 295° (WNW) 2,105 10.0 -6.1°
Sets 09:53:15 0° 325° (NW) 3,021 11.1 -5.6°
